Погода в Огоньках

Россия / Сахалинская область     46°46′45″N   142°23′27″E
темп.,
°C
ветер,
м/с
пор.,
м/с
влажн.,
%
обл.,
%
осадки,
мм/ч
давл.,
гПа
погр.,
м
9 мая, вс
вс923:00+4ююз1195100 1.6 1002107
02:00+4с2293100 0.6 1003134
05:00+4ссв228811 0.7 100253
08:00+3ссв348960 0.0 1004226
11:00+6св3482100 0.0 1003456
14:00+7св3580100 0.0 1002512
17:00+8св5675100 0.0 1001486
20:00+5св4781100 0.0 1001364
10 мая, пн
пн1023:00+3с4885100 0.0 1000301
02:00+2с5989100 0.0 999531
05:00+1с51089100 0.3 999552
08:00+2с71390100 0.4 998614
11:00+3с61186100 1.1 999592
14:00+4с101584100 0.1 999628
17:00+3с91587100 0.3 1001759
20:00+2с71390100 0.1 1005709
11 мая, вт
вт1123:00+2с61391100 0.3 1008678
02:00+1с71285100 0.1 1011586
05:00+1с51180100 0.1 1013474
08:00+1с597296 0.0 1015447
11:00+5ссв575917 0.0 1016619
14:00+7ссв57535 0.0 1017744
17:00+7ссв67519 0.0 1017683
20:00+5ссв366518 0.0 1019219
12 мая, ср
ср1223:00+1с22816 0.0 102131
02:000ссз22750 0.0 102236
05:000зсз11700 0.0 102231
08:00+3ю11630 0.0 1023134
11:00+5ююв33655 0.0 1022460
14:00+5ююв56743 0.0 1022331
17:00+5юв45755 0.0 1021279
20:00+3юв3384100 0.0 1021114
13 мая, чт
чт1323:00+2ююв2391100 0.0 102139
02:00+2ююв2290100 0.0 102036
05:00+2ююв2291100 0.0 101917
08:00+3юв2286100 0.0 1018100
11:00+7ю4779100 0.1 1016514
14:00+5ю489672 1.1 1015373
17:00+10ююз6107164 1.1 1013656
20:00+7ю48883 0.0 1013270